Volver al catálogo

COSMOS 2251 DEB

ActivoLEO
NORAD 39583·DEBRIS·🇷🇺 Russia

Lanzado Jun 16, 1993 desde Plesetsk Cosmodrome

Loading…

Próximos Pases (próximas 24 horas)

TLE

EnvejeciendoSource: Space-Track

Época: Sep 9, 2026, 06:20 UTC

1 39583U 93036BUN 26252.26422235  .00004709  00000-0  78929-3 0  9990
2 39583  73.9293  85.0948 0130629 138.7493 222.3636 14.64499162657359

Sigue COSMOS 2251 DEB en tiempo real con AllMySat

Download on the App Store